User: anonymous   Login
Location: De Greiden
(52.9496°N, 5.9137°E)
Time: 17:10:24
(UTC+00:00)
Language:

SJ 16-02 - Orbit

View from above orbital plane
View from above orbital plane
View from above satellite
View from above satellite

Ground track
Ground track

The orbit data is extracted from the following two-line orbital elements,

1 41634U 16043A   21113.16250390  .00000315  00000-0  39379-4 0  9990
2 41634  75.0043 213.5852 0008553 269.6603  90.3607 14.85792386261230
Epoch (UTC): 23 April 2021 03:54:00
Eccentricity: 0.0008553
inclination: 75.0043°
perigee height: 605 km
apogee height: 617 km
right ascension of ascending node: 213.5852°
argument of perigee: 269.6603°
revolutions per day: 14.85792386
mean anomaly at epoch: 90.3607°
orbit number at epoch: 26123

The dashed part of the orbit path shows where the satellite is in the earth's shadow,  

DLR